[[{"header":{"parameterUnit":"m.s-1","parameterCategory":1,"la1":30.2991,"la2":30.254,"lo1":-89.0895,"lo2":-89.0444,"dy":0.0017,"dx":0.0017,"nx":28,"ny":28,"refTime":"2026-03-02T09:00:00:Z","depth":0,"parameterNumber":2,"parameterNumberName":"U-component_of_WINDS"},"data":[0,0,0,0,0,0,0,0,0,0,0,0,0,0,0,0,0,0,0,0,0,0,0,0,0,0,0,0,0,0,0,0,0,0,0,0,0,0,0,0,0,0,0,0,0,0,0,0,0,0,0,0,0,0,0,0,0,0,-2.5579,-2.5578,0,-2.5511,-2.551,-2.5509,-2.5475,-2.5475,-2.5475,-2.5475,-2.5406,-2.5404,-2.5402,0,0,0,0,0,0,0,0,0,0,0,0,0,-2.568,-2.5679,-2.5579,-2.5578,-2.5577,-2.5511,-2.551,-2.5509,-2.5475,-2.5475,-2.5475,-2.5475,-2.5406,-2.5404,-2.5402,0,0,0,0,0,0,0,0,0,0,0,0,0,-2.5627,-2.5678,-2.5579,-2.5552,-2.5549,-2.5511,-2.551,-2.5509,-2.5475,-2.5475,-2.5475,-2.5475,-2.5407,-2.5404,-2.5402,-2.5385,0,0,-2.5393,-2.5392,0,0,0,0,0,0,0,0,-2.563,-2.5623,-2.5557,-2.5554,-2.555,-2.5501,-2.552,-2.5467,-2.5475,-2.5503,-2.5475,-2.5475,-2.5438,-2.5432,-2.542,-2.5382,-2.5379,-2.5393,-2.5391,-2.539,-2.5389,0,0,0,0,0,0,0,-2.5633,-2.5626,-2.5552,-2.5556,-2.5552,-2.5544,-2.5536,-2.551,-2.5471,-2.5501,-2.5498,-2.549,-2.5436,-2.5422,-2.5418,-2.5378,-2.5393,-2.5391,-2.5389,-2.5388,-2.5324,-2.5324,0,0,0,0,0,0,-2.5641,-2.5629,-2.5554,-2.555,-2.5591,-2.5542,-2.5533,-2.5517,-2.5471,-2.5465,-2.5491,-2.5489,-2.5427,-2.5421,-2.5415,-2.5393,-2.539,-2.5388,-2.5386,-2.5324,-2.5324,-2.5324,0,0,0,0,0,0,-2.5644,-2.5635,-2.5557,-2.5589,-2.5578,-2.554,-2.5522,-2.5516,-2.5502,-2.5464,-2.5457,-2.5484,-2.5427,-2.5419,-2.5393,-2.539,-2.5386,-2.5384,-2.5324,-2.5324,-2.5324,-2.5348,0,0,0,0,0,0,-2.5647,-2.5636,-2.5629,-2.5589,-2.5576,-2.5535,-2.5522,-2.5514,-2.5497,-2.5495,-2.5456,-2.5449,-2.5426,-2.5397,-2.539,-2.5386,-2.5382,-2.5324,-2.5324,-2.5324,-2.5347,-2.5349,-2.535,0,0,0,0,0,-2.5651,-2.5639,-2.5629,-2.562,-2.5567,-2.5535,-2.5528,-2.5502,-2.5497,-2.549,-2.5466,-2.545,-2.5392,-2.5395,-2.5387,-2.5382,-2.5324,-2.5324,-2.5324,-2.5347,-2.5348,-2.535,0,0,0,0,0,0,-2.5679,-2.5633,-2.5621,-2.5596,-2.557,-2.5529,-2.5519,-2.5504,-2.5479,-2.5478,-2.5446,-2.5438,-2.5415,-2.5396,-2.54,-2.5364,-2.5356,-2.5355,-2.5377,-2.5378,-2.5379,-2.5384,-2.5379,0,0,0,0,0,-2.5683,-2.5661,-2.5621,-2.5603,-2.559,-2.5557,-2.5542,-2.5524,-2.5496,-2.5485,-2.5458,-2.5432,-2.5407,-2.5392,-2.5367,-2.5345,-2.5336,-2.5337,-2.5339,-2.534,-2.5339,-2.5326,-2.5327,-2.5323,-2.5323,-2.5323,0,0,-2.5689,-2.5661,-2.5649,-2.5608,-2.5585,-2.5563,-2.5548,-2.5525,-2.5509,-2.5481,-2.5455,-2.5435,-2.5403,-2.5379,-2.5367,-2.5362,-2.5338,-2.534,-2.5341,-2.5339,-2.5326,-2.5327,-2.5327,-2.5323,-2.5323,-2.5323,0,0,-2.569,-2.5667,-2.5649,-2.5627,-2.5593,-2.5572,-2.5567,-2.5529,-2.5515,-2.5488,-2.5467,-2.5448,-2.5406,-2.5384,-2.5368,-2.5362,-2.5347,-2.5355,-2.5362,-2.535,-2.5351,-2.5351,-2.5349,-2.5349,-2.5354,-2.5354,-2.5354,0,-2.5702,-2.5668,-2.5641,-2.562,-2.5603,-2.5577,-2.5559,-2.5539,-2.5499,-2.5488,-2.5484,-2.5431,-2.5408,-2.5379,-2.5378,-2.5365,-2.536,-2.5359,-2.5353,-2.5353,-2.5352,-2.535,-2.535,-2.5355,-2.5355,-2.5355,-2.5355,0,-2.5686,-2.5663,-2.5652,-2.5615,-2.5596,-2.5577,-2.5547,-2.5531,-2.5516,-2.5495,-2.5468,-2.544,-2.5409,-2.5401,-2.5385,-2.537,-2.5368,-2.5359,-2.5351,-2.5354,-2.5352,-2.5351,-2.5357,-2.5357,-2.5356,-2.5356,0,0,-2.5701,-2.565,-2.5646,-2.5629,-2.5591,-2.5573,-2.5553,-2.5523,-2.551,-2.5484,-2.5467,-2.5433,-2.5424,-2.5406,-2.5387,-2.5377,-2.5375,-2.5369,-2.5368,-2.5371,-2.5356,-2.5364,-2.5363,-2.5365,-2.5365,-2.5365,-2.5359,0,-2.5697,-2.5659,-2.5634,-2.5606,-2.5585,-2.5561,-2.5544,-2.5519,-2.5499,-2.5478,-2.5457,-2.5433,-2.5423,-2.5412,-2.5401,-2.5377,-2.5371,-2.5378,-2.5349,-2.5348,-2.5357,-2.5362,-2.5369,-2.5365,-2.5358,-2.5358,-2.5358,0,-2.5686,-2.5661,-2.5631,-2.5595,-2.5586,-2.557,-2.5541,-2.5522,-2.5493,-2.548,-2.546,-2.5441,-2.542,-2.5414,-2.5384,-2.5389,-2.5376,-2.5363,-2.5362,-2.5358,-2.5353,-2.5358,-2.5363,-2.5363,-2.5356,-2.5356,-2.5356,0,-2.57,-2.5659,-2.5636,-2.5622,-2.558,-2.557,-2.5552,-2.5524,-2.5508,-2.5483,-2.5472,-2.5445,-2.543,-2.541,-2.5386,-2.5384,-2.5358,-2.5351,-2.5347,-2.5347,-2.5342,-2.5342,-2.5345,-2.5334,-2.5334,-2.5334,-2.5334,0,-2.5697,-2.568,-2.5642,-2.5627,-2.5608,-2.558,-2.5561,-2.5542,-2.5517,-2.5499,-2.5477,-2.546,-2.5429,-2.5409,-2.5389,-2.5368,-2.5361,-2.535,-2.5345,-2.5352,-2.5353,-2.5342,-2.5342,-2.5334,-2.5334,-2.5334,-2.5334,0,-2.571,-2.5684,-2.5657,-2.562,-2.561,-2.5597,-2.5566,-2.5552,-2.5531,-2.5509,-2.5502,-2.547,-2.5445,-2.5419,-2.5385,-2.5372,-2.5352,-2.5345,-2.5361,-2.5358,-2.5356,-2.5356,-2.5351,-2.5349,-2.534,-2.534,-2.534,0,-2.5709,-2.5696,-2.5658,-2.5644,-2.5627,-2.5605,-2.5589,-2.5562,-2.5546,-2.5513,-2.5502,-2.5476,-2.5453,-2.5415,-2.5389,-2.5364,-2.5356,-2.5356,-2.5352,-2.536,-2.5356,-2.5357,-2.5356,-2.5357,-2.5358,-2.5358,-2.5358,0,-2.5712,-2.57,-2.5677,-2.565,-2.5631,-2.5609,-2.5585,-2.5575,-2.5544,-2.5527,-2.5501,-2.5484,-2.545,-2.5424,-2.5396,-2.5378,-2.5363,-2.536,-2.5357,-2.5364,-2.5374,-2.5368,-2.5364,-2.536,-2.5359,-2.5359,-2.5359,-2.5359,-2.5718,-2.5704,-2.5676,-2.5652,-2.5631,-2.561,-2.5595,-2.5573,-2.5551,-2.5521,-2.5507,-2.5482,-2.5454,-2.5415,-2.5397,-2.5378,-2.5373,-2.537,-2.5369,-2.5368,-2.537,-2.5378,-2.5372,-2.5372,-2.5372,-2.5372,-2.5372,0,-2.5719,-2.5699,-2.5677,-2.5646,-2.5627,-2.5614,-2.5588,-2.5573,-2.5551,-2.5527,-2.5506,-2.5477,-2.5452,-2.5425,-2.5399,-2.5388,-2.5381,-2.5382,-2.5383,-2.5379,-2.5376,-2.538,-2.5389,-2.5389,-2.5389,-2.5389,-2.5389,-2.5389,-2.5717,-2.5694,-2.5679,-2.5646,-2.5627,-2.5602,-2.5588,-2.5569,-2.555,-2.5518,-2.5498,-2.548,-2.5455,-2.5427,-2.5404,-2.5397,-2.5388,-2.5392,-2.5383,-2.538,-2.5379,-2.5378,-2.5382,-2.539,-2.539,-2.5387,-2.5387,-2.5387]},{"header":{"parameterUnit":"m.s-1","parameterCategory":1,"la1":30.2991,"la2":30.254,"lo1":-89.0895,"lo2":-89.0444,"dy":0.0017,"dx":0.0017,"nx":28,"ny":28,"refTime":"2026-03-02T09:00:00:Z","depth":0,"parameterNumber":3,"parameterNumberName":"V-component_of_WINDS"},"data":[0,0,0,0,0,0,0,0,0,0,0,0,0,0,0,0,0,0,0,0,0,0,0,0,0,0,0,0,0,0,0,0,0,0,0,0,0,0,0,0,0,0,0,0,0,0,0,0,0,0,0,0,0,0,0,0,0,0,2.4111,2.4111,0,2.4109,2.4109,2.4109,2.4186,2.4188,2.419,2.4192,2.4183,2.4181,2.4179,0,0,0,0,0,0,0,0,0,0,0,0,0,2.4178,2.4176,2.4111,2.4111,2.4111,2.4109,2.4109,2.4109,2.4185,2.4188,2.419,2.4193,2.4184,2.4181,2.4178,0,0,0,0,0,0,0,0,0,0,0,0,0,2.4159,2.4176,2.4111,2.4149,2.4153,2.4109,2.4109,2.4109,2.4185,2.4188,2.4191,2.4194,2.4184,2.4181,2.4178,2.4096,0,0,2.4168,2.4167,0,0,0,0,0,0,0,0,2.416,2.4157,2.4144,2.4147,2.415,2.4151,2.4129,2.4104,2.4184,2.4172,2.4192,2.4196,2.4169,2.4167,2.416,2.4095,2.4095,2.4168,2.4166,2.4164,2.4163,0,0,0,0,0,0,0,2.4161,2.4157,2.411,2.4143,2.4147,2.4165,2.4166,2.4125,2.4153,2.4174,2.4179,2.4178,2.4172,2.4163,2.416,2.4095,2.4168,2.4165,2.4163,2.4162,2.3965,2.3962,0,0,0,0,0,0,2.4158,2.4158,2.411,2.411,2.4163,2.4161,2.4162,2.4147,2.4154,2.4158,2.4176,2.4182,2.4167,2.4164,2.416,2.4067,2.4164,2.4161,2.416,2.3968,2.3964,2.3961,0,0,0,0,0,0,2.4159,2.4153,2.411,2.4136,2.4131,2.4157,2.414,2.4146,2.4137,2.4156,2.416,2.4162,2.4169,2.4165,2.4112,2.4068,2.416,2.4157,2.3972,2.3967,2.3963,2.3877,0,0,0,0,0,0,2.4161,2.4153,2.4123,2.4134,2.413,2.4063,2.4137,2.4143,2.4132,2.414,2.4144,2.4147,2.4171,2.4117,2.4109,2.4065,2.4154,2.3976,2.397,2.3964,2.3884,2.387,2.3858,0,0,0,0,0,2.4163,2.4097,2.4121,2.4115,2.4093,2.4061,2.4058,2.4089,2.4128,2.4098,2.411,2.4147,2.4073,2.4111,2.4103,2.4057,2.3979,2.3972,2.3965,2.389,2.3873,2.3858,0,0,0,0,0,0,2.4077,2.4099,2.4126,2.4062,2.4059,2.4074,2.4036,2.4069,2.4053,2.4061,2.4098,2.4098,2.404,2.4043,2.4084,2.3979,2.4033,2.4024,2.3979,2.3963,2.395,2.3951,2.4152,0,0,0,0,0,2.4051,2.4024,2.4044,2.3986,2.3983,2.401,2.3997,2.4021,2.4019,2.4017,2.4026,2.402,2.3997,2.398,2.3958,2.3885,2.3888,2.3849,2.3836,2.3825,2.3817,2.3781,2.3765,2.3937,2.3937,2.3937,0,0,2.3996,2.4005,2.3985,2.3969,2.397,2.3941,2.4008,2.3974,2.3953,2.4011,2.3964,2.3969,2.3966,2.3904,2.3876,2.3904,2.377,2.3816,2.3807,2.3805,2.3772,2.3756,2.3741,2.3932,2.3933,2.3933,0,0,2.3882,2.3885,2.3838,2.3839,2.384,2.3859,2.3847,2.3857,2.3864,2.3818,2.3862,2.3836,2.3793,2.379,2.3783,2.367,2.3705,2.3662,2.3594,2.3558,2.3545,2.3533,2.3495,2.3481,2.3653,2.3653,2.3653,0,2.3813,2.3773,2.3809,2.3774,2.3766,2.382,2.3773,2.3771,2.3764,2.3757,2.3788,2.3738,2.3739,2.3678,2.3651,2.3643,2.3631,2.3662,2.3544,2.3533,2.3522,2.3486,2.3472,2.3648,2.3649,2.3649,2.365,0,2.3689,2.3661,2.3622,2.3619,2.3606,2.3564,2.3594,2.3576,2.3602,2.3617,2.3569,2.3573,2.3555,2.3542,2.3565,2.3485,2.3502,2.3538,2.3594,2.35,2.3467,2.3454,2.3641,2.3643,2.3644,2.3645,0,0,2.352,2.3539,2.3525,2.3525,2.3531,2.3509,2.347,2.3455,2.3441,2.3434,2.3403,2.3367,2.3401,2.3393,2.3416,2.3385,2.3298,2.3425,2.3425,2.3403,2.3213,2.3187,2.3171,2.3321,2.3318,2.3316,2.3214,0,2.3412,2.3349,2.3382,2.3314,2.329,2.3342,2.3308,2.3308,2.3321,2.3301,2.3314,2.3289,2.3335,2.3331,2.3302,2.3315,2.3261,2.3322,2.3292,2.3291,2.3294,2.3153,2.3125,2.3028,2.3201,2.3199,2.3197,0,2.3277,2.3269,2.32,2.3214,2.3205,2.3174,2.3165,2.3144,2.3145,2.3157,2.3149,2.3181,2.3143,2.3198,2.3147,2.3188,2.3177,2.3182,2.3179,2.3178,2.3239,2.3151,2.2998,2.2984,2.3177,2.3178,2.318,0,2.3164,2.3135,2.3091,2.3089,2.3103,2.3081,2.3086,2.309,2.308,2.307,2.3064,2.3049,2.3041,2.3029,2.3055,2.3092,2.3001,2.3057,2.301,2.301,2.299,2.2991,2.2835,2.2979,2.298,2.298,2.298,0,2.3041,2.2997,2.3041,2.3014,2.2967,2.3004,2.2956,2.2966,2.297,2.2945,2.2988,2.2963,2.2999,2.2978,2.2998,2.2954,2.2949,2.2958,2.2964,2.2955,2.2955,2.295,2.2958,2.2976,2.2977,2.2978,2.2978,0,2.2907,2.2935,2.2891,2.2909,2.2913,2.2877,2.2893,2.2868,2.2885,2.2853,2.2848,2.2873,2.2851,2.2876,2.2854,2.2868,2.281,2.2825,2.281,2.2816,2.2768,2.2773,2.2605,2.2586,2.274,2.2739,2.2738,0,2.2828,2.2796,2.2812,2.2801,2.2804,2.2783,2.2774,2.2809,2.2797,2.2798,2.2773,2.2755,2.2743,2.2704,2.272,2.2704,2.2721,2.2663,2.2718,2.2712,2.2723,2.2725,2.2723,2.2652,2.265,2.2649,2.2647,0,2.2685,2.2701,2.2688,2.2679,2.2668,2.2662,2.2659,2.2646,2.2683,2.2668,2.2648,2.2638,2.2619,2.26,2.259,2.2593,2.2626,2.263,2.2619,2.261,2.2605,2.261,2.2782,2.2634,2.2635,2.2636,2.2637,2.2637,2.2578,2.2554,2.2562,2.2546,2.2548,2.2546,2.2525,2.254,2.2524,2.2513,2.2534,2.2508,2.2511,2.2501,2.2501,2.2481,2.2505,2.2488,2.2484,2.248,2.2474,2.2606,2.2478,2.2479,2.2479,2.248,2.248,0,2.244,2.2449,2.2434,2.2431,2.2418,2.2453,2.2452,2.2439,2.2417,2.2418,2.2406,2.2383,2.2366,2.2381,2.2367,2.2348,2.2364,2.2344,2.2346,2.2347,2.2452,2.2464,2.2332,2.2332,2.2332,2.2332,2.2332,2.2332,2.2367,2.2328,2.2345,2.2308,2.2317,2.2294,2.2291,2.2289,2.2291,2.2264,2.2252,2.2262,2.2269,2.2257,2.2243,2.2248,2.2242,2.2217,2.2227,2.2325,2.2339,2.2353,2.2365,2.2214,2.2214,2.2124,2.2124,2.2123]}]]